OPS 4682 DEB, 18784

Orbit data source: Space-Track

OPS 4682 DEB, 18784 is space debris in LEO originally from a launch on Sat, 03 Apr 1965 UTC launched from the Air Force Western Test Range (AFWTR). Debris objects in space refer to the collection of defunct objects orbiting the Earth. Examples of debris include non-operational satellites, rocket bodies, and fragments generated from explosions, collisions, or faulty payload assembly.

Loading next visibility...
Identifier
18784, 1965-027AL
Orbit
LEO
Last TLE update
4 days ago
Origin
Manufacturer
Unknown
Mission
Spacecraft
Bus & Motor
Unknown
Mass
Unknown
Launch date (UTC)
1965-04-03 (60 years ago)
Launch vehicle
Unknown
Launch site
Air Force Western Test Range (AFWTR)
Object type
Payload
Rocket body
Debris
Shape & HBR
Unknown
Radar Cross Section
Small (<0.1 m²)

Expand to show TLE details & history

TLE from 4 days ago
0 OPS 4682 DEB
1 18784U 65027AL  25178.77003723  .00000035  00000-0  95709-4 0  9992
2 18784  90.2457 356.2645 0038877 332.7520  42.5234 12.96952091756443
Epoch: 2025-06-27T18:28Z
TLE epoch observation values (Epoch: 2025-06-27T18:28:51.216Z)
Latitude
15.55491°
Longitude
162.86491°
Altitude
1,254.382 km
Speed
7.239 km/s
True Right ascension
23h 44m 47s
True Declination
15° 28' 19"
Sunlit
Object was in daylight at epoch
Visualization orbit readout
Latitude
49.83284°
Longitude
-16.69506°
Altitude
1,311.006 km
Speed
7.192 km/s
Apparent Right ascension
10h 45m 43s
Apparent Declination
10° 36' 19"
Sunlit
Object is in daylight
Visualization observer readout
Local Sidereal Time
21:44:01
Azimuth
340.763° N
Elevation
-37.491°
Doppler factor
1
Orbital elements
Apogee altitude
1,300.922 km
Perigee altitude
1,241.445 km
Semi-major axis
7,649.32 km
Eccentricity
0.00389
Inclination
90.2457°
RAAN
356.2645°
Arg. of periapsis
332.752°
True anomaly
Unknown
Mean anomaly
42.5234°
Eccentric anomaly
Unknown
Mean motion
3.24421 °/min
Orbital period
110.97 mins
BSTAR
0.000095709
Loading maneuver chart data...
Loading SW <> Apogee altitude chart data...
Loading historical data...
Loading historical data...
Loading historical data...
Loading historical data...
Loading historical data...
Loading historical data...
Loading historical data...

OPS 4682 DEB Visibility forecast

Observer location: undefined°, undefined°

Span
Click to sort rows by Start time (UTC) header in descending order
Start Az.
Max El. time (UTC)
Max El. Az.
Max El.
End time (UTC)
End Az.
13 mins2025-07-01 11:22:38.208Z151.52° SSE2025-07-01 11:28:38.208Z89.897° E38.099°2025-07-01 11:35:38.208Z8.812° NNE
10 mins2025-07-01 13:15:38.208Z231.977° WSW2025-07-01 13:19:38.208Z273.289° WNW25.698°2025-07-01 13:25:38.208Z332.376° NNW
12 mins2025-07-01 23:00:38.208Z24.411° NE2025-07-01 23:06:38.208Z90.045° ESE31.105°2025-07-01 23:12:38.208Z147.031° SSE
12 mins2025-07-02 00:51:38.208Z342.529° N2025-07-02 00:56:38.208Z289.07° WNW33.721°2025-07-02 01:03:38.208Z216.512° SW
|